Location: Melizzano
(41.1500°N, 14.5000°E)
Time: 06:40:08
(UTC+00:00)

COSMOS 2406 - Pass Details

Date: 11 May 2021
Orbit: 844 x 862 km, 71.0° (Epoch: 20 June)

Event Time Altitude Azimuth Distance (km) Brightness Sun altitude
Rises 20:00:20 0° 339° (NNW) 3,412 7.6 -17.8°
Reaches altitude 10° 20:02:50 10° 343° (NNW) 2,474 6.6 -18.1°
Maximum altitude 20:08:26 59° 63° (ENE) 972 3.4 -18.9°
Enters shadow 20:10:44 35° 127° (SE) 1,350 3.7 -19.2°
